Location: São Paulo
(23.5507°S, 46.6334°W)
Time: 14:15:27
(UTC-03:00)

Tiros 1 - Pass Details

Date: 17 February 2026
Orbit: 618 x 649 km, 48.4° (Epoch: 11 March)

Event Time Altitude Azimuth Distance (km) Brightness Sun altitude
Rises 04:35:38 0° 229° (SW) 2,977 - -18.3°
Reaches altitude 10° 04:38:01 10° 233° (SW) 2,060 - -17.8°
Exits shadow 04:38:42 14° 234° (SW) 1,800 9.1 -17.6°
Maximum altitude 04:42:41 60° 311° (NW) 743 7.1 -16.8°
Drops below altitude 10° 04:47:18 10° 31° (NNE) 2,028 9.8 -15.8°
Sets 04:49:38 0° 35° (NE) 2,927 10.7 -15.3°
